Time,TemperatureF,DewpointF,PressureIn,WindDirection,WindDirectionDegrees,WindSpeedMPH,WindSpeedGustMPH,Humidity,HourlyPrecipIn,Conditions,Clouds,dailyrainin,SolarRadiationWatts/m^2,SoftwareType,DateUTC
2013-01-18 00:02:00,41.7,34.7,30.15,West,273,0.0,11.0,76,0.00,,,0.00,0.0,meteohub,2013-01-18 05:02:00,
2013-01-18 00:03:00,41.7,34.7,30.15,West,273,0.0,11.0,76,0.00,,,0.00,0.0,meteohub,2013-01-18 05:03:00,
2013-01-18 00:05:00,41.7,34.7,30.15,West,273,1.0,11.0,76,0.00,,,0.00,0.0,meteohub,2013-01-18 05:05:00,
2013-01-18 00:12:00,41.5,34.5,30.15,NNW,346,6.0,6.0,76,0.00,,,0.00,0.0,meteohub,2013-01-18 05:12:00,
2013-01-18 00:17:00,41.5,34.5,30.15,West,262,0.0,6.0,76,0.00,,,0.00,0.0,meteohub,2013-01-18 05:17:00,
2013-01-18 00:21:00,41.4,34.3,30.16,West,263,0.0,6.0,76,0.00,,,0.00,0.0,meteohub,2013-01-18 05:21:00,
2013-01-18 00:27:00,41.2,34.5,30.16,West,266,3.0,6.0,77,0.00,,,0.00,0.0,meteohub,2013-01-18 05:27:00,
2013-01-18 00:32:00,41.2,34.5,30.17,West,267,0.0,6.0,77,0.00,,,0.00,0.0,meteohub,2013-01-18 05:32:00,
2013-01-18 00:37:00,41.2,34.9,30.16,West,274,0.0,6.0,78,0.00,,,0.00,0.0,meteohub,2013-01-18 05:37:00,
2013-01-18 00:42:00,41.2,34.9,30.17,West,274,0.0,4.0,78,0.00,,,0.00,0.0,meteohub,2013-01-18 05:42:00,
2013-01-18 00:49:00,41.2,35.2,30.17,West,273,3.0,4.0,79,0.00,,,0.00,0.0,meteohub,2013-01-18 05:49:00,
2013-01-18 00:55:00,41.2,35.2,30.17,West,273,0.0,4.0,79,0.00,,,0.00,0.0,meteohub,2013-01-18 05:55:00,
2013-01-18 01:01:00,41.4,35.4,30.18,West,273,0.0,3.0,79,0.00,,,0.00,0.0,meteohub,2013-01-18 06:01:00,
2013-01-18 01:07:00,41.4,35.4,30.18,West,277,0.0,3.0,79,0.00,,,0.00,0.0,meteohub,2013-01-18 06:07:00,
2013-01-18 01:12:00,41.4,35.4,30.17,West,277,0.0,3.0,79,0.00,,,0.00,0.0,meteohub,2013-01-18 06:12:00,
2013-01-18 01:17:00,41.4,35.6,30.18,West,277,0.0,3.0,80,0.00,,,0.00,0.0,meteohub,2013-01-18 06:17:00,
2013-01-18 01:22:00,41.4,35.6,30.18,West,277,0.0,3.0,80,0.00,,,0.00,0.0,meteohub,2013-01-18 06:22:00,
2013-01-18 01:27:00,41.5,35.8,30.19,West,277,0.0,3.0,80,0.00,,,0.00,0.0,meteohub,2013-01-18 06:27:00,
2013-01-18 01:32:00,41.5,35.8,30.19,West,277,0.0,2.0,80,0.00,,,0.00,0.0,meteohub,2013-01-18 06:32:00,
2013-01-18 01:38:00,41.5,35.8,30.18,West,277,0.0,2.0,80,0.00,,,0.00,0.0,meteohub,2013-01-18 06:38:00,
2013-01-18 01:45:00,41.7,36.0,30.19,West,277,0.0,2.0,80,0.00,,,0.00,0.0,meteohub,2013-01-18 06:45:00,
2013-01-18 01:51:00,41.7,36.0,30.19,West,277,0.0,2.0,80,0.00,,,0.00,0.0,meteohub,2013-01-18 06:51:00,
2013-01-18 01:57:00,41.7,36.0,30.19,West,265,0.0,2.0,80,0.00,,,0.00,0.0,meteohub,2013-01-18 06:57:00,
2013-01-18 02:03:00,41.7,36.0,30.19,WNW,282,0.0,5.0,80,0.00,,,0.00,0.0,meteohub,2013-01-18 07:03:00,
2013-01-18 02:09:00,41.7,36.0,30.19,WSW,254,0.0,5.0,80,0.00,,,0.00,0.0,meteohub,2013-01-18 07:09:00,
2013-01-18 02:16:00,41.7,36.3,30.20,WSW,254,0.0,5.0,81,0.00,,,0.00,0.0,meteohub,2013-01-18 07:16:00,
2013-01-18 02:22:00,41.7,36.3,30.20,WSW,254,0.0,3.0,81,0.00,,,0.00,0.0,meteohub,2013-01-18 07:22:00,
2013-01-18 02:28:00,41.7,36.3,30.21,WSW,254,0.0,3.0,81,0.00,,,0.00,0.0,meteohub,2013-01-18 07:28:00,
2013-01-18 02:34:00,41.7,36.3,30.21,WSW,254,1.0,3.0,81,0.00,,,0.00,0.0,meteohub,2013-01-18 07:34:00,
2013-01-18 02:40:00,41.9,36.9,30.21,WNW,282,0.0,4.0,82,0.00,,,0.00,0.0,meteohub,2013-01-18 07:40:00,
2013-01-18 02:47:00,41.9,36.9,30.20,WNW,282,0.0,4.0,82,0.00,,,0.00,0.0,meteohub,2013-01-18 07:47:00,
2013-01-18 02:52:00,41.9,36.9,30.21,WNW,282,0.0,4.0,82,0.00,,,0.00,0.0,meteohub,2013-01-18 07:52:00,
2013-01-18 02:57:00,41.9,36.9,30.21,West,281,0.0,4.0,82,0.00,,,0.00,0.0,meteohub,2013-01-18 07:57:00,
2013-01-18 03:02:00,41.9,36.9,30.21,WSW,246,0.0,3.0,82,0.00,,,0.00,0.0,meteohub,2013-01-18 08:02:00,
2013-01-18 03:07:00,41.9,36.9,30.21,WSW,246,0.0,3.0,82,0.00,,,0.00,0.0,meteohub,2013-01-18 08:07:00,
2013-01-18 03:12:00,41.9,36.9,30.21,WSW,246,0.0,4.0,82,0.00,,,0.00,0.0,meteohub,2013-01-18 08:12:00,
2013-01-18 03:17:00,41.9,36.9,30.21,WSW,247,0.0,4.0,82,0.00,,,0.00,0.0,meteohub,2013-01-18 08:17:00,
2013-01-18 03:24:00,42.1,37.2,30.22,WSW,247,0.0,3.0,83,0.00,,,0.00,0.0,meteohub,2013-01-18 08:24:00,
2013-01-18 03:30:00,42.1,37.2,30.22,NW,308,0.0,3.0,83,0.00,,,0.00,0.0,meteohub,2013-01-18 08:30:00,
2013-01-18 03:36:00,42.1,37.2,30.22,WNW,296,0.0,3.0,83,0.00,,,0.00,0.0,meteohub,2013-01-18 08:36:00,
2013-01-18 03:42:00,41.9,37.0,30.22,WNW,294,0.0,3.0,83,0.00,,,0.00,0.0,meteohub,2013-01-18 08:42:00,
2013-01-18 03:47:00,41.7,36.7,30.22,WNW,294,0.0,2.0,82,0.00,,,0.00,0.0,meteohub,2013-01-18 08:47:00,
2013-01-18 03:52:00,41.7,36.9,30.22,WNW,294,0.0,2.0,83,0.00,,,0.00,0.0,meteohub,2013-01-18 08:52:00,
2013-01-18 03:57:00,41.5,36.7,30.22,WNW,294,0.0,3.0,83,0.00,,,0.00,0.0,meteohub,2013-01-18 08:57:00,
2013-01-18 04:02:00,41.4,36.3,30.22,WNW,294,0.0,3.0,82,0.00,,,0.00,0.0,meteohub,2013-01-18 09:02:00,
2013-01-18 04:07:00,41.2,36.5,30.22,WNW,294,0.0,1.0,83,0.00,,,0.00,0.0,meteohub,2013-01-18 09:07:00,
2013-01-18 04:12:00,40.8,37.6,30.23,WNW,294,0.0,1.0,88,0.00,,,0.00,0.0,meteohub,2013-01-18 09:12:00,
2013-01-18 04:17:00,40.6,36.0,30.24,WNW,294,0.0,1.0,83,0.00,,,0.00,0.0,meteohub,2013-01-18 09:17:00,
2013-01-18 04:22:00,40.6,36.0,30.24,WNW,294,0.0,1.0,83,0.00,,,0.00,0.0,meteohub,2013-01-18 09:22:00,
2013-01-18 04:27:00,40.5,35.8,30.23,WNW,294,0.0,1.0,83,0.00,,,0.00,0.0,meteohub,2013-01-18 09:27:00,
2013-01-18 04:32:00,40.1,35.6,30.24,WNW,294,0.0,1.0,84,0.00,,,0.00,0.0,meteohub,2013-01-18 09:32:00,
2013-01-18 04:37:00,39.9,35.4,30.24,WNW,294,0.0,1.0,84,0.00,,,0.00,0.0,meteohub,2013-01-18 09:37:00,
2013-01-18 04:42:00,39.7,35.2,30.25,WNW,294,0.0,1.0,84,0.00,,,0.00,0.0,meteohub,2013-01-18 09:42:00,
2013-01-18 04:47:00,39.6,35.4,30.25,WNW,294,0.0,1.0,85,0.00,,,0.00,0.0,meteohub,2013-01-18 09:47:00,
2013-01-18 04:52:00,39.4,35.2,30.25,WNW,294,0.0,1.0,85,0.00,,,0.00,0.0,meteohub,2013-01-18 09:52:00,
2013-01-18 04:59:00,39.0,35.2,30.25,WNW,294,0.0,0.0,86,0.00,,,0.00,0.0,meteohub,2013-01-18 09:59:00,
2013-01-18 05:06:00,39.0,35.2,30.26,WNW,294,0.0,1.0,86,0.00,,,0.00,0.0,meteohub,2013-01-18 10:06:00,
2013-01-18 05:12:00,38.8,35.1,30.26,WNW,294,0.0,1.0,86,0.00,,,0.00,0.0,meteohub,2013-01-18 10:12:00,
2013-01-18 05:17:00,38.7,35.1,30.26,WNW,294,0.0,1.0,87,0.00,,,0.00,0.0,meteohub,2013-01-18 10:17:00,
2013-01-18 05:22:00,38.7,35.1,30.27,WNW,294,0.0,1.0,87,0.00,,,0.00,0.0,meteohub,2013-01-18 10:22:00,
2013-01-18 05:27:00,38.7,35.4,30.26,WNW,294,0.0,1.0,88,0.00,,,0.00,0.0,meteohub,2013-01-18 10:27:00,
2013-01-18 05:32:00,38.5,35.2,30.27,WNW,294,0.0,1.0,88,0.00,,,0.00,0.0,meteohub,2013-01-18 10:32:00,
2013-01-18 05:37:00,38.5,35.6,30.27,NNE,19,0.0,1.0,89,0.00,,,0.00,0.0,meteohub,2013-01-18 10:37:00,
2013-01-18 05:42:00,38.5,35.6,30.27,NNE,19,0.0,1.0,89,0.00,,,0.00,0.0,meteohub,2013-01-18 10:42:00,
2013-01-18 05:47:00,38.5,35.6,30.27,NNE,19,0.0,2.0,89,0.00,,,0.00,0.0,meteohub,2013-01-18 10:47:00,
2013-01-18 05:52:00,38.5,35.8,30.28,NNE,19,0.0,2.0,90,0.00,,,0.00,0.0,meteohub,2013-01-18 10:52:00,
2013-01-18 05:57:00,38.5,35.8,30.28,NNE,19,0.0,1.0,90,0.00,,,0.00,0.0,meteohub,2013-01-18 10:57:00,
2013-01-18 06:02:00,38.5,35.8,30.28,NNE,19,0.0,1.0,90,0.00,,,0.00,0.0,meteohub,2013-01-18 11:02:00,
2013-01-18 06:07:00,38.5,35.8,30.28,NNE,19,0.0,1.0,90,0.00,,,0.00,0.0,meteohub,2013-01-18 11:07:00,
2013-01-18 06:12:00,38.3,35.6,30.29,NNE,19,0.0,1.0,90,0.00,,,0.00,0.0,meteohub,2013-01-18 11:12:00,
2013-01-18 06:17:00,38.3,35.6,30.29,NNE,19,0.0,0.0,90,0.00,,,0.00,0.0,meteohub,2013-01-18 11:17:00,
2013-01-18 06:22:00,38.1,35.8,30.29,NNE,19,0.0,0.0,91,0.00,,,0.00,0.0,meteohub,2013-01-18 11:22:00,
2013-01-18 06:27:00,38.1,35.8,30.29,NNE,19,0.0,1.0,91,0.00,,,0.00,0.0,meteohub,2013-01-18 11:27:00,
2013-01-18 06:32:00,37.9,35.6,30.30,NNE,19,0.0,1.0,91,0.00,,,0.00,0.0,meteohub,2013-01-18 11:32:00,
2013-01-18 06:38:00,37.9,35.6,30.30,NNE,19,0.0,0.0,91,0.00,,,0.00,0.0,meteohub,2013-01-18 11:38:00,
2013-01-18 06:44:00,37.9,35.6,30.30,NNE,19,0.0,1.0,91,0.00,,,0.00,0.0,meteohub,2013-01-18 11:44:00,
2013-01-18 06:50:00,37.8,35.4,30.30,NNE,19,0.0,1.0,91,0.00,,,0.00,0.0,meteohub,2013-01-18 11:50:00,
2013-01-18 06:56:00,37.8,35.4,30.30,NNE,19,0.0,1.0,91,0.00,,,0.00,0.0,meteohub,2013-01-18 11:56:00,
2013-01-18 07:02:00,37.8,35.4,30.31,NNE,19,0.0,1.0,91,0.00,,,0.00,0.0,meteohub,2013-01-18 12:02:00,
2013-01-18 07:07:00,37.6,35.4,30.31,NNE,19,0.0,1.0,92,0.00,,,0.00,0.0,meteohub,2013-01-18 12:07:00,
2013-01-18 07:12:00,37.6,35.4,30.32,NNE,19,0.0,1.0,92,0.00,,,0.00,0.0,meteohub,2013-01-18 12:12:00,
2013-01-18 07:17:00,37.6,35.4,30.32,NNE,17,0.0,2.0,92,0.00,,,0.00,0.0,meteohub,2013-01-18 12:17:00,
2013-01-18 07:22:00,37.6,35.4,30.32,NNE,17,0.0,2.0,92,0.00,,,0.00,0.0,meteohub,2013-01-18 12:22:00,
2013-01-18 07:27:00,37.4,35.2,30.32,NNE,17,0.0,1.0,92,0.00,,,0.00,0.0,meteohub,2013-01-18 12:27:00,
2013-01-18 07:32:00,37.4,35.2,30.33,NNE,17,0.0,1.0,92,0.00,,,0.00,5.0,meteohub,2013-01-18 12:32:00,
2013-01-18 07:37:00,37.2,35.1,30.33,NNE,17,0.0,1.0,92,0.00,,,0.00,9.0,meteohub,2013-01-18 12:37:00,
2013-01-18 07:42:00,37.2,35.1,30.33,NNE,17,0.0,1.0,92,0.00,,,0.00,11.0,meteohub,2013-01-18 12:42:00,
2013-01-18 07:47:00,37.2,35.4,30.34,NNE,17,0.0,0.0,93,0.00,,,0.00,14.0,meteohub,2013-01-18 12:47:00,
2013-01-18 07:52:00,37.2,35.4,30.34,NNE,17,0.0,0.0,93,0.00,,,0.00,16.0,meteohub,2013-01-18 12:52:00,
2013-01-18 07:57:00,37.4,35.6,30.34,NNE,17,1.0,1.0,93,0.00,,,0.00,18.0,meteohub,2013-01-18 12:57:00,
2013-01-18 08:02:00,37.6,35.8,30.35,NNE,17,0.0,1.0,93,0.00,,,0.00,19.0,meteohub,2013-01-18 13:02:00,
2013-01-18 08:07:00,37.6,35.8,30.35,NE,55,0.0,2.0,93,0.00,,,0.00,21.0,meteohub,2013-01-18 13:07:00,
2013-01-18 08:12:00,37.9,36.3,30.35,NE,40,1.0,2.0,94,0.00,,,0.00,23.0,meteohub,2013-01-18 13:12:00,
2013-01-18 08:17:00,38.5,36.9,30.36,NE,49,1.0,3.0,94,0.00,,,0.00,37.0,meteohub,2013-01-18 13:17:00,
2013-01-18 08:22:00,38.8,37.2,30.35,North,5,0.0,3.0,94,0.00,,,0.00,28.0,meteohub,2013-01-18 13:22:00,
2013-01-18 08:29:00,39.9,38.3,30.36,NNE,25,0.0,4.0,94,0.00,,,0.00,44.0,meteohub,2013-01-18 13:29:00,
2013-01-18 08:35:00,41.0,39.2,30.37,NNE,31,1.0,4.0,93,0.00,,,0.00,70.0,meteohub,2013-01-18 13:35:00,
2013-01-18 08:41:00,41.9,39.4,30.37,East,84,1.0,4.0,91,0.00,,,0.00,42.0,meteohub,2013-01-18 13:41:00,
2013-01-18 08:47:00,42.6,39.6,30.38,ENE,69,2.0,6.0,89,0.00,,,0.00,49.0,meteohub,2013-01-18 13:47:00,
2013-01-18 08:52:00,43.2,39.6,30.38,NNE,33,3.0,6.0,87,0.00,,,0.00,54.0,meteohub,2013-01-18 13:52:00,
2013-01-18 08:57:00,43.5,39.6,30.38,NE,53,0.0,6.0,86,0.00,,,0.00,63.0,meteohub,2013-01-18 13:57:00,
2013-01-18 09:02:00,43.7,39.2,30.38,NE,51,0.0,6.0,84,0.00,,,0.00,148.0,meteohub,2013-01-18 14:02:00,
2013-01-18 09:09:00,44.2,39.4,30.38,NE,51,0.0,8.0,83,0.00,,,0.00,225.0,meteohub,2013-01-18 14:09:00,
2013-01-18 09:15:00,44.6,39.4,30.38,NNW,342,2.0,8.0,82,0.00,,,0.00,315.0,meteohub,2013-01-18 14:15:00,
2013-01-18 09:21:00,45.1,39.4,30.39,NE,52,2.0,8.0,80,0.00,,,0.00,278.0,meteohub,2013-01-18 14:21:00,
2013-01-18 09:27:00,45.3,39.2,30.39,North,355,2.0,9.0,79,0.00,,,0.00,236.0,meteohub,2013-01-18 14:27:00,
2013-01-18 09:32:00,45.7,39.2,30.39,East,82,3.0,9.0,78,0.00,,,0.00,258.0,meteohub,2013-01-18 14:32:00,
2013-01-18 09:37:00,45.7,38.8,30.39,ENE,62,0.0,11.0,77,0.00,,,0.00,271.0,meteohub,2013-01-18 14:37:00,
2013-01-18 09:42:00,46.2,39.0,30.40,NNE,28,2.0,11.0,76,0.00,,,0.00,306.0,meteohub,2013-01-18 14:42:00,
2013-01-18 09:47:00,46.9,39.0,30.40,NE,50,2.0,11.0,74,0.00,,,0.00,156.0,meteohub,2013-01-18 14:47:00,
2013-01-18 09:52:00,47.1,38.5,30.40,NE,34,3.0,11.0,72,0.00,,,0.00,322.0,meteohub,2013-01-18 14:52:00,
2013-01-18 09:57:00,47.3,38.3,30.41,NE,34,4.0,10.0,71,0.00,,,0.00,330.0,meteohub,2013-01-18 14:57:00,
2013-01-18 10:02:00,47.7,38.3,30.41,NE,44,3.0,10.0,70,0.00,,,0.00,207.0,meteohub,2013-01-18 15:02:00,
2013-01-18 10:07:00,47.7,37.9,30.41,NE,42,3.0,10.0,69,0.00,,,0.00,165.0,meteohub,2013-01-18 15:07:00,
2013-01-18 10:12:00,47.8,38.1,30.41,NE,55,2.0,10.0,69,0.00,,,0.00,218.0,meteohub,2013-01-18 15:12:00,
2013-01-18 10:17:00,48.0,37.6,30.41,NNE,31,2.0,11.0,67,0.00,,,0.00,183.0,meteohub,2013-01-18 15:17:00,
2013-01-18 10:22:00,48.4,37.9,30.42,NNE,22,3.0,11.0,67,0.00,,,0.00,276.0,meteohub,2013-01-18 15:22:00,
2013-01-18 10:27:00,48.7,38.7,30.42,West,269,3.0,13.0,68,0.00,,,0.00,436.0,meteohub,2013-01-18 15:27:00,
2013-01-18 10:32:00,48.9,37.8,30.42,NE,45,3.0,13.0,65,0.00,,,0.00,538.0,meteohub,2013-01-18 15:32:00,
2013-01-18 10:37:00,48.9,37.8,30.42,East,81,4.0,13.0,65,0.00,,,0.00,547.0,meteohub,2013-01-18 15:37:00,
2013-01-18 10:42:00,49.6,38.3,30.43,NNE,24,2.0,13.0,65,0.00,,,0.00,555.0,meteohub,2013-01-18 15:42:00,
2013-01-18 10:47:00,49.8,38.1,30.42,East,84,1.0,12.0,64,0.00,,,0.00,568.0,meteohub,2013-01-18 15:47:00,
2013-01-18 10:53:00,50.5,37.9,30.42,NNE,30,2.0,13.0,62,0.00,,,0.00,582.0,meteohub,2013-01-18 15:53:00,
2013-01-18 10:59:00,50.4,38.3,30.42,ENE,61,3.0,13.0,63,0.00,,,0.00,563.0,meteohub,2013-01-18 15:59:00,
2013-01-18 11:06:00,50.7,37.4,30.42,NE,40,3.0,16.0,60,0.00,,,0.00,603.0,meteohub,2013-01-18 16:06:00,
2013-01-18 11:12:00,51.3,38.3,30.42,ESE,108,3.0,16.0,61,0.00,,,0.00,613.0,meteohub,2013-01-18 16:12:00,
2013-01-18 11:17:00,51.3,37.8,30.41,ENE,61,3.0,12.0,60,0.00,,,0.00,622.0,meteohub,2013-01-18 16:17:00,
2013-01-18 11:24:00,51.6,36.9,30.41,NE,47,3.0,11.0,57,0.00,,,0.00,636.0,meteohub,2013-01-18 16:24:00,
2013-01-18 11:30:00,51.4,36.7,30.41,ENE,60,2.0,11.0,57,0.00,,,0.00,638.0,meteohub,2013-01-18 16:30:00,
2013-01-18 11:36:00,52.5,38.1,30.41,NE,43,5.0,9.0,58,0.00,,,0.00,647.0,meteohub,2013-01-18 16:36:00,
2013-01-18 11:42:00,52.5,37.2,30.41,NNE,13,2.0,9.0,56,0.00,,,0.00,647.0,meteohub,2013-01-18 16:42:00,
2013-01-18 11:49:00,53.4,37.2,30.40,ENE,67,2.0,10.0,54,0.00,,,0.00,671.0,meteohub,2013-01-18 16:49:00,
2013-01-18 11:55:00,53.4,37.2,30.40,ENE,64,3.0,9.0,54,0.00,,,0.00,673.0,meteohub,2013-01-18 16:55:00,
2013-01-18 12:01:00,54.1,36.0,30.40,NE,52,0.0,9.0,50,0.00,,,0.00,677.0,meteohub,2013-01-18 17:01:00,
2013-01-18 12:07:00,55.0,36.1,30.40,NE,46,6.0,13.0,49,0.00,,,0.00,680.0,meteohub,2013-01-18 17:07:00,
2013-01-18 12:12:00,54.7,37.4,30.39,NNE,28,3.0,13.0,52,0.00,,,0.00,682.0,meteohub,2013-01-18 17:12:00,
2013-01-18 12:17:00,55.2,37.9,30.40,North,10,0.0,13.0,52,0.00,,,0.00,693.0,meteohub,2013-01-18 17:17:00,
2013-01-18 12:22:00,55.2,36.9,30.40,NE,47,6.0,13.0,50,0.00,,,0.00,698.0,meteohub,2013-01-18 17:22:00,
2013-01-18 12:27:00,55.4,36.5,30.39,NNE,31,3.0,10.0,49,0.00,,,0.00,612.0,meteohub,2013-01-18 17:27:00,
2013-01-18 12:32:00,55.6,36.7,30.39,ENE,62,2.0,10.0,49,0.00,,,0.00,698.0,meteohub,2013-01-18 17:32:00,
2013-01-18 12:37:00,55.9,37.0,30.38,NE,51,0.0,9.0,49,0.00,,,0.00,596.0,meteohub,2013-01-18 17:37:00,
2013-01-18 12:42:00,55.9,34.9,30.39,NE,34,7.0,9.0,45,0.00,,,0.00,499.0,meteohub,2013-01-18 17:42:00,
2013-01-18 12:47:00,55.9,34.9,30.39,NE,39,2.0,11.0,45,0.00,,,0.00,670.0,meteohub,2013-01-18 17:47:00,
2013-01-18 12:52:00,56.1,36.1,30.39,ENE,71,3.0,11.0,47,0.00,,,0.00,686.0,meteohub,2013-01-18 17:52:00,
2013-01-18 12:57:00,56.8,34.5,30.38,North,355,2.0,11.0,43,0.00,,,0.00,686.0,meteohub,2013-01-18 17:57:00,
2013-01-18 13:02:00,57.7,36.0,30.38,NE,34,2.0,11.0,44,0.00,,,0.00,680.0,meteohub,2013-01-18 18:02:00,
2013-01-18 13:09:00,57.6,35.8,30.38,NE,43,0.0,6.0,44,0.00,,,0.00,680.0,meteohub,2013-01-18 18:09:00,
2013-01-18 13:15:00,57.6,33.4,30.38,ESE,114,1.0,7.0,40,0.00,,,0.00,677.0,meteohub,2013-01-18 18:15:00,
2013-01-18 13:21:00,57.4,34.5,30.38,ENE,67,0.0,7.0,42,0.00,,,0.00,677.0,meteohub,2013-01-18 18:21:00,
2013-01-18 13:27:00,57.0,32.9,30.38,ENE,65,0.0,9.0,40,0.00,,,0.00,682.0,meteohub,2013-01-18 18:27:00,
2013-01-18 13:34:00,58.6,33.1,30.38,NE,53,3.0,9.0,38,0.00,,,0.00,673.0,meteohub,2013-01-18 18:34:00,
2013-01-18 13:40:00,58.6,33.8,30.38,NE,53,0.0,9.0,39,0.00,,,0.00,636.0,meteohub,2013-01-18 18:40:00,
2013-01-18 13:46:00,58.3,32.2,30.38,ENE,77,1.0,10.0,37,0.00,,,0.00,501.0,meteohub,2013-01-18 18:46:00,
2013-01-18 13:52:00,58.3,33.4,30.38,ENE,68,2.0,10.0,39,0.00,,,0.00,341.0,meteohub,2013-01-18 18:52:00,
2013-01-18 13:57:00,59.4,34.3,30.38,East,83,3.0,9.0,39,0.00,,,0.00,278.0,meteohub,2013-01-18 18:57:00,
2013-01-18 14:02:00,58.8,33.3,30.38,ENE,71,4.0,9.0,38,0.00,,,0.00,396.0,meteohub,2013-01-18 19:02:00,
2013-01-18 14:07:00,58.6,33.1,30.38,ENE,59,2.0,6.0,38,0.00,,,0.00,585.0,meteohub,2013-01-18 19:07:00,
2013-01-18 14:12:00,58.8,32.5,30.38,ENE,78,6.0,6.0,37,0.00,,,0.00,619.0,meteohub,2013-01-18 19:12:00,
2013-01-18 14:17:00,58.5,31.6,30.38,ENE,64,1.0,8.0,36,0.00,,,0.00,610.0,meteohub,2013-01-18 19:17:00,
2013-01-18 14:22:00,58.5,32.4,30.38,ENE,69,1.0,8.0,37,0.00,,,0.00,603.0,meteohub,2013-01-18 19:22:00,
2013-01-18 14:27:00,58.5,31.6,30.38,ENE,65,2.0,9.0,36,0.00,,,0.00,592.0,meteohub,2013-01-18 19:27:00,
2013-01-18 14:32:00,59.5,31.8,30.38,SE,126,1.0,9.0,35,0.00,,,0.00,584.0,meteohub,2013-01-18 19:32:00,
2013-01-18 14:37:00,59.9,32.2,30.38,ESE,103,0.0,9.0,35,0.00,,,0.00,573.0,meteohub,2013-01-18 19:37:00,
2013-01-18 14:42:00,59.4,32.4,30.38,NE,40,3.0,9.0,36,0.00,,,0.00,554.0,meteohub,2013-01-18 19:42:00,
2013-01-18 14:47:00,58.6,33.1,30.38,ENE,72,0.0,10.0,38,0.00,,,0.00,547.0,meteohub,2013-01-18 19:47:00,
2013-01-18 14:52:00,59.4,32.4,30.38,NE,47,0.0,10.0,36,0.00,,,0.00,541.0,meteohub,2013-01-18 19:52:00,
2013-01-18 14:57:00,59.2,31.5,30.38,ENE,76,5.0,10.0,35,0.00,,,0.00,529.0,meteohub,2013-01-18 19:57:00,
2013-01-18 15:02:00,58.8,30.6,30.38,East,91,0.0,10.0,34,0.00,,,0.00,519.0,meteohub,2013-01-18 20:02:00,
2013-01-18 15:07:00,58.8,29.8,30.38,ENE,74,3.0,11.0,33,0.00,,,0.00,508.0,meteohub,2013-01-18 20:07:00,
2013-01-18 15:12:00,58.5,29.5,30.38,ENE,68,3.0,11.0,33,0.00,,,0.00,496.0,meteohub,2013-01-18 20:12:00,
2013-01-18 15:19:00,58.8,29.8,30.38,NNE,23,3.0,10.0,33,0.00,,,0.00,482.0,meteohub,2013-01-18 20:19:00,
2013-01-18 15:25:00,59.2,28.6,30.38,NE,41,1.0,8.0,31,0.00,,,0.00,462.0,meteohub,2013-01-18 20:25:00,
2013-01-18 15:31:00,58.8,28.2,30.38,ESE,123,1.0,8.0,31,0.00,,,0.00,450.0,meteohub,2013-01-18 20:31:00,
2013-01-18 15:37:00,59.0,27.7,30.38,NE,49,4.0,8.0,30,0.00,,,0.00,431.0,meteohub,2013-01-18 20:37:00,
2013-01-18 15:42:00,58.1,26.1,30.38,NE,45,1.0,8.0,29,0.00,,,0.00,403.0,meteohub,2013-01-18 20:42:00,
2013-01-18 15:47:00,57.9,26.6,30.38,East,80,3.0,9.0,30,0.00,,,0.00,401.0,meteohub,2013-01-18 20:47:00,
2013-01-18 15:52:00,57.7,26.4,30.39,East,97,1.0,9.0,30,0.00,,,0.00,338.0,meteohub,2013-01-18 20:52:00,
2013-01-18 15:57:00,57.7,26.4,30.39,ENE,72,1.0,11.0,30,0.00,,,0.00,374.0,meteohub,2013-01-18 20:57:00,
2013-01-18 16:02:00,57.9,28.2,30.39,NNE,30,1.0,11.0,32,0.00,,,0.00,348.0,meteohub,2013-01-18 21:02:00,
2013-01-18 16:07:00,57.7,29.5,30.39,NE,40,3.0,9.0,34,0.00,,,0.00,336.0,meteohub,2013-01-18 21:07:00,
2013-01-18 16:14:00,57.6,30.7,30.39,NNE,19,0.0,7.0,36,0.00,,,0.00,315.0,meteohub,2013-01-18 21:14:00,
2013-01-18 16:20:00,57.7,32.4,30.40,ESE,117,1.0,7.0,38,0.00,,,0.00,281.0,meteohub,2013-01-18 21:20:00,
2013-01-18 16:26:00,57.4,32.0,30.40,ENE,60,1.0,7.0,38,0.00,,,0.00,95.0,meteohub,2013-01-18 21:26:00,
2013-01-18 16:32:00,57.0,29.7,30.40,ENE,69,3.0,7.0,35,0.00,,,0.00,144.0,meteohub,2013-01-18 21:32:00,
2013-01-18 16:37:00,56.5,29.8,30.40,South,187,6.0,6.0,36,0.00,,,0.00,160.0,meteohub,2013-01-18 21:37:00,
2013-01-18 16:42:00,56.3,28.9,30.40,ENE,78,0.0,6.0,35,0.00,,,0.00,125.0,meteohub,2013-01-18 21:42:00,
2013-01-18 16:47:00,55.9,28.0,30.40,East,80,0.0,9.0,34,0.00,,,0.00,125.0,meteohub,2013-01-18 21:47:00,
2013-01-18 16:52:00,55.8,29.8,30.40,NE,52,0.0,9.0,37,0.00,,,0.00,84.0,meteohub,2013-01-18 21:52:00,
2013-01-18 16:57:00,55.6,29.7,30.40,ENE,59,0.0,7.0,37,0.00,,,0.00,62.0,meteohub,2013-01-18 21:57:00,
2013-01-18 17:02:00,55.6,30.4,30.41,East,84,0.0,7.0,38,0.00,,,0.00,35.0,meteohub,2013-01-18 22:02:00,
2013-01-18 17:09:00,55.2,30.7,30.40,ENE,57,0.0,4.0,39,0.00,,,0.00,28.0,meteohub,2013-01-18 22:09:00,
2013-01-18 17:15:00,55.0,31.1,30.40,ENE,73,0.0,7.0,40,0.00,,,0.00,25.0,meteohub,2013-01-18 22:15:00,
2013-01-18 17:22:00,54.9,30.4,30.40,ENE,73,0.0,7.0,39,0.00,,,0.00,21.0,meteohub,2013-01-18 22:22:00,
2013-01-18 17:27:00,54.5,30.7,30.41,ENE,73,0.0,3.0,40,0.00,,,0.00,18.0,meteohub,2013-01-18 22:27:00,
2013-01-18 17:32:00,54.3,31.1,30.41,ENE,73,0.0,3.0,41,0.00,,,0.00,16.0,meteohub,2013-01-18 22:32:00,
2013-01-18 17:37:00,54.0,31.5,30.41,ENE,73,0.0,1.0,42,0.00,,,0.00,12.0,meteohub,2013-01-18 22:37:00,
2013-01-18 17:42:00,53.8,31.8,30.41,ENE,73,0.0,1.0,43,0.00,,,0.00,9.0,meteohub,2013-01-18 22:42:00,
2013-01-18 17:47:00,53.4,32.0,30.41,ENE,73,0.0,1.0,44,0.00,,,0.00,7.0,meteohub,2013-01-18 22:47:00,
2013-01-18 17:52:00,53.1,32.4,30.41,ENE,73,0.0,1.0,45,0.00,,,0.00,5.0,meteohub,2013-01-18 22:52:00,
2013-01-18 17:57:00,52.5,32.9,30.42,ENE,73,0.0,1.0,47,0.00,,,0.00,0.0,meteohub,2013-01-18 22:57:00,
2013-01-18 18:02:00,52.2,32.5,30.42,ENE,73,0.0,1.0,47,0.00,,,0.00,0.0,meteohub,2013-01-18 23:02:00,
2013-01-18 18:07:00,51.6,33.1,30.43,ENE,78,0.0,1.0,49,0.00,,,0.00,0.0,meteohub,2013-01-18 23:07:00,
2013-01-18 18:14:00,51.1,33.6,30.42,NE,55,0.0,3.0,51,0.00,,,0.00,0.0,meteohub,2013-01-18 23:14:00,
2013-01-18 18:20:00,50.4,33.4,30.42,NE,55,0.0,3.0,52,0.00,,,0.00,0.0,meteohub,2013-01-18 23:20:00,
2013-01-18 18:26:00,49.8,33.4,30.43,NE,55,0.0,3.0,53,0.00,,,0.00,0.0,meteohub,2013-01-18 23:26:00,
2013-01-18 18:32:00,49.5,33.4,30.43,NE,55,0.0,2.0,54,0.00,,,0.00,0.0,meteohub,2013-01-18 23:32:00,
2013-01-18 18:37:00,49.1,33.6,30.43,NE,55,0.0,0.0,55,0.00,,,0.00,0.0,meteohub,2013-01-18 23:37:00,
2013-01-18 18:42:00,48.7,33.3,30.44,NE,55,0.0,0.0,55,0.00,,,0.00,0.0,meteohub,2013-01-18 23:42:00,
2013-01-18 18:47:00,48.4,33.4,30.44,NE,55,0.0,0.0,56,0.00,,,0.00,0.0,meteohub,2013-01-18 23:47:00,
2013-01-18 18:52:00,48.0,33.4,30.43,NE,55,0.0,0.0,57,0.00,,,0.00,0.0,meteohub,2013-01-18 23:52:00,
2013-01-18 18:57:00,47.7,33.6,30.44,NE,55,0.0,1.0,58,0.00,,,0.00,0.0,meteohub,2013-01-18 23:57:00,
2013-01-18 19:02:00,47.3,33.6,30.44,NE,55,0.0,1.0,59,0.00,,,0.00,0.0,meteohub,2013-01-19 00:02:00,
2013-01-18 19:07:00,46.9,33.8,30.44,NE,55,0.0,0.0,60,0.00,,,0.00,0.0,meteohub,2013-01-19 00:07:00,
2013-01-18 19:12:00,46.6,33.8,30.44,NE,55,0.0,0.0,61,0.00,,,0.00,0.0,meteohub,2013-01-19 00:12:00,
2013-01-18 19:17:00,46.0,33.3,30.44,NE,55,0.0,0.0,61,0.00,,,0.00,0.0,meteohub,2013-01-19 00:17:00,
2013-01-18 19:22:00,45.7,33.4,30.44,NE,55,0.0,0.0,62,0.00,,,0.00,0.0,meteohub,2013-01-19 00:22:00,
2013-01-18 19:27:00,45.3,33.4,30.44,NE,55,0.0,0.0,63,0.00,,,0.00,0.0,meteohub,2013-01-19 00:27:00,
2013-01-18 19:32:00,45.0,33.4,30.44,NE,55,0.0,0.0,64,0.00,,,0.00,0.0,meteohub,2013-01-19 00:32:00,
2013-01-18 19:37:00,44.8,33.8,30.44,NE,55,0.0,0.0,65,0.00,,,0.00,0.0,meteohub,2013-01-19 00:37:00,
2013-01-18 19:42:00,44.4,33.4,30.45,NE,55,0.0,0.0,65,0.00,,,0.00,0.0,meteohub,2013-01-19 00:42:00,
2013-01-18 19:50:00,43.9,33.3,30.45,NE,55,0.0,0.0,66,0.00,,,0.00,0.0,meteohub,2013-01-19 00:50:00,
2013-01-18 19:56:00,43.3,32.7,30.44,NE,55,0.0,0.0,66,0.00,,,0.00,0.0,meteohub,2013-01-19 00:56:00,
2013-01-18 20:02:00,43.0,32.7,30.45,NE,55,0.0,0.0,67,0.00,,,0.00,0.0,meteohub,2013-01-19 01:02:00,
2013-01-18 20:08:00,42.4,32.7,30.45,NE,55,0.0,0.0,68,0.00,,,0.00,0.0,meteohub,2013-01-19 01:08:00,
2013-01-18 20:14:00,42.3,32.9,30.45,NE,55,0.0,0.0,69,0.00,,,0.00,0.0,meteohub,2013-01-19 01:14:00,
2013-01-18 20:20:00,42.1,33.1,30.45,NE,55,0.0,0.0,70,0.00,,,0.00,0.0,meteohub,2013-01-19 01:20:00,
2013-01-18 20:27:00,41.5,32.5,30.45,NE,55,0.0,0.0,70,0.00,,,0.00,0.0,meteohub,2013-01-19 01:27:00,
2013-01-18 20:33:00,41.4,32.7,30.45,NE,55,0.0,0.0,71,0.00,,,0.00,0.0,meteohub,2013-01-19 01:33:00,
2013-01-18 20:39:00,41.2,33.3,30.45,NE,55,0.0,0.0,73,0.00,,,0.00,0.0,meteohub,2013-01-19 01:39:00,
2013-01-18 20:45:00,40.8,33.4,30.45,NE,55,0.0,0.0,75,0.00,,,0.00,0.0,meteohub,2013-01-19 01:45:00,
2013-01-18 20:52:00,40.5,33.4,30.45,NE,55,0.0,0.0,76,0.00,,,0.00,0.0,meteohub,2013-01-19 01:52:00,
2013-01-18 20:57:00,40.3,33.6,30.45,NE,55,0.0,0.0,77,0.00,,,0.00,0.0,meteohub,2013-01-19 01:57:00,
2013-01-18 21:02:00,40.1,34.2,30.45,NE,49,0.0,0.0,79,0.00,,,0.00,0.0,meteohub,2013-01-19 02:02:00,
2013-01-18 21:07:00,39.9,34.3,30.45,ENE,62,0.0,1.0,80,0.00,,,0.00,0.0,meteohub,2013-01-19 02:07:00,
2013-01-18 21:13:00,40.1,34.5,30.45,NNE,32,0.0,6.0,80,0.00,,,0.00,0.0,meteohub,2013-01-19 02:13:00,
2013-01-18 21:19:00,40.6,34.7,30.45,NNE,31,0.0,6.0,79,0.00,,,0.00,0.0,meteohub,2013-01-19 02:19:00,
2013-01-18 21:26:00,41.2,34.9,30.44,NNE,15,0.0,6.0,78,0.00,,,0.00,0.0,meteohub,2013-01-19 02:26:00,
2013-01-18 21:32:00,41.5,35.2,30.45,NNE,16,0.0,6.0,78,0.00,,,0.00,0.0,meteohub,2013-01-19 02:32:00,
2013-01-18 21:37:00,41.9,35.2,30.45,NNE,16,0.0,2.0,77,0.00,,,0.00,0.0,meteohub,2013-01-19 02:37:00,
2013-01-18 21:42:00,42.3,35.2,30.44,NE,44,0.0,2.0,76,0.00,,,0.00,0.0,meteohub,2013-01-19 02:42:00,
2013-01-18 21:47:00,42.6,34.9,30.44,NE,44,0.0,4.0,74,0.00,,,0.00,0.0,meteohub,2013-01-19 02:47:00,
2013-01-18 21:52:00,43.2,35.4,30.44,NE,44,0.0,4.0,74,0.00,,,0.00,0.0,meteohub,2013-01-19 02:52:00,
2013-01-18 21:57:00,43.3,35.2,30.43,NE,47,0.0,2.0,73,0.00,,,0.00,0.0,meteohub,2013-01-19 02:57:00,
2013-01-18 22:02:00,43.3,34.9,30.44,NE,47,0.0,2.0,72,0.00,,,0.00,0.0,meteohub,2013-01-19 03:02:00,
2013-01-18 22:07:00,43.3,34.9,30.44,NE,47,0.0,3.0,72,0.00,,,0.00,0.0,meteohub,2013-01-19 03:07:00,
2013-01-18 22:12:00,43.3,34.9,30.43,NE,47,0.0,3.0,72,0.00,,,0.00,0.0,meteohub,2013-01-19 03:12:00,
2013-01-18 22:17:00,43.3,34.9,30.43,NW,305,0.0,2.0,72,0.00,,,0.00,0.0,meteohub,2013-01-19 03:17:00,
2013-01-18 22:24:00,43.3,34.9,30.43,NW,307,0.0,3.0,72,0.00,,,0.00,0.0,meteohub,2013-01-19 03:24:00,
2013-01-18 22:30:00,43.3,34.5,30.43,NW,315,0.0,3.0,71,0.00,,,0.00,0.0,meteohub,2013-01-19 03:30:00,
2013-01-18 22:37:00,43.2,34.7,30.42,NW,315,0.0,1.0,72,0.00,,,0.00,0.0,meteohub,2013-01-19 03:37:00,
2013-01-18 22:42:00,43.2,34.7,30.43,NW,315,0.0,1.0,72,0.00,,,0.00,0.0,meteohub,2013-01-19 03:42:00,
2013-01-18 22:47:00,43.2,34.7,30.42,North,11,0.0,1.0,72,0.00,,,0.00,0.0,meteohub,2013-01-19 03:47:00,
2013-01-18 22:52:00,43.0,34.5,30.42,NNE,13,0.0,1.0,72,0.00,,,0.00,0.0,meteohub,2013-01-19 03:52:00,
2013-01-18 22:58:00,43.0,34.9,30.41,NNE,14,0.0,3.0,73,0.00,,,0.00,0.0,meteohub,2013-01-19 03:58:00,
2013-01-18 23:04:00,43.0,34.9,30.41,NNE,16,0.0,3.0,73,0.00,,,0.00,0.0,meteohub,2013-01-19 04:04:00,
2013-01-18 23:11:00,43.0,34.9,30.41,NNE,32,0.0,3.0,73,0.00,,,0.00,0.0,meteohub,2013-01-19 04:11:00,
2013-01-18 23:17:00,43.0,34.9,30.41,NNE,33,2.0,3.0,73,0.00,,,0.00,0.0,meteohub,2013-01-19 04:17:00,
2013-01-18 23:22:00,43.0,34.5,30.41,NE,47,0.0,3.0,72,0.00,,,0.00,0.0,meteohub,2013-01-19 04:22:00,
2013-01-18 23:27:00,43.2,34.7,30.41,NE,51,1.0,3.0,72,0.00,,,0.00,0.0,meteohub,2013-01-19 04:27:00,
2013-01-18 23:32:00,43.2,34.7,30.41,NE,51,0.0,3.0,72,0.00,,,0.00,0.0,meteohub,2013-01-19 04:32:00,
2013-01-18 23:37:00,43.2,34.7,30.40,NE,51,0.0,3.0,72,0.00,,,0.00,0.0,meteohub,2013-01-19 04:37:00,
2013-01-18 23:42:00,43.2,34.7,30.40,NE,51,0.0,1.0,72,0.00,,,0.00,0.0,meteohub,2013-01-19 04:42:00,
2013-01-18 23:47:00,43.0,34.9,30.40,NE,51,0.0,1.0,73,0.00,,,0.00,0.0,meteohub,2013-01-19 04:47:00,
2013-01-18 23:52:00,43.0,34.5,30.40,NE,46,0.0,1.0,72,0.00,,,0.00,0.0,meteohub,2013-01-19 04:52:00,
2013-01-18 23:57:00,43.0,34.5,30.40,NE,46,0.0,1.0,72,0.00,,,0.00,0.0,meteohub,2013-01-19 04:57:00,